• In Uzbekistan
  • List of Countries
  • For 7 days
  • Water Temperature
  • Satellite Maps
  • Weather Map
  • Weather Widgets
  • user-avatar
    Login

    Hourly Weather Heide

    Today, 22 September, Friday

    Time Temperature Precipitation Wind Pressure Humidity
    00:00 +13°C° 0 mm 2 mps 764 mmHg 90%
    01:00 +13°C° 0 mm 2 mps 764 mmHg 93%
    02:00 +12°C° 0 mm 2 mps 764 mmHg 93%
    03:00 +12°C° 0 mm 2 mps 764 mmHg 94%
    04:00 +12°C° 0 mm 2 mps 764 mmHg 94%
    05:00 +12°C° 0 mm 2 mps 764 mmHg 93%
    06:00 +12°C° 0 mm 2 mps 764 mmHg 93%
    07:00 +12°C° 0 mm 2 mps 764 mmHg 93%
    08:00 +13°C° 0 mm 2 mps 764 mmHg 88%
    09:00 +15°C° 0 mm 2 mps 764 mmHg 84%
    10:00 +16°C° 0 mm 2 mps 764 mmHg 79%
    11:00 +17°C° 0.1 mm 2 mps 764 mmHg 76%
    12:00 +17°C° 0.1 mm 2 mps 764 mmHg 72%
    13:00 +19°C° 0.1 mm 1 mps 764 mmHg 69%
    14:00 +19°C° 0.2 mm 1 mps 764 mmHg 72%
    15:00 +19°C° 0.2 mm 1 mps 764 mmHg 74%
    16:00 +18°C° 0.2 mm 1 mps 764 mmHg 77%
    17:00 +16°C° 0.1 mm 1 mps 764 mmHg 81%
    18:00 +15°C° 0.1 mm 1 mps 764 mmHg 85%
    19:00 +14°C° 0.1 mm 2 mps 765 mmHg 89%
    20:00 +14°C° 0 mm 2 mps 765 mmHg 89%
    21:00 +14°C° 0 mm 2 mps 765 mmHg 89%
    22:00 +14°C° 0 mm 2 mps 765 mmHg 90%
    23:00 +13°C° 0 mm 2 mps 765 mmHg 90%

    Tomorrow, 23 September, Saturday

    Time Temperature Precipitation Wind Pressure Humidity
    00:00 +13°C° 0 mm 2 mps 766 mmHg 90%
    01:00 +12°C° 0 mm 2 mps 766 mmHg 91%
    02:00 +12°C° 0 mm 1 mps 766 mmHg 91%
    03:00 +12°C° 0 mm 1 mps 766 mmHg 91%
    04:00 +12°C° 0 mm 1 mps 766 mmHg 91%
    05:00 +12°C° 0 mm 1 mps 766 mmHg 91%
    06:00 +12°C° 0 mm 1 mps 766 mmHg 91%
    07:00 +12°C° 0 mm 2 mps 766 mmHg 92%
    08:00 +13°C° 0 mm 2 mps 766 mmHg 86%
    09:00 +15°C° 0 mm 2 mps 767 mmHg 81%
    10:00 +16°C° 0 mm 2 mps 767 mmHg 76%
    11:00 +17°C° 0 mm 2 mps 767 mmHg 72%
    12:00 +18°C° 0 mm 2 mps 767 mmHg 68%
    13:00 +20°C° 0 mm 1 mps 767 mmHg 64%
    14:00 +19°C° 0 mm 2 mps 766 mmHg 65%
    15:00 +19°C° 0 mm 2 mps 766 mmHg 65%
    16:00 +19°C° 0 mm 2 mps 766 mmHg 66%
    17:00 +17°C° 0 mm 2 mps 766 mmHg 73%
    18:00 +16°C° 0 mm 3 mps 766 mmHg 79%
    19:00 +13°C° 0 mm 3 mps 766 mmHg 86%
    20:00 +13°C° 0 mm 3 mps 766 mmHg 88%
    21:00 +13°C° 0 mm 2 mps 766 mmHg 90%
    22:00 +13°C° 0 mm 2 mps 766 mmHg 93%
    23:00 +13°C° 0 mm 2 mps 766 mmHg 93%

    Day after tomorrow, 24 September, Sunday

    Time Temperature Precipitation Wind Pressure Humidity
    00:00 +13°C° 0 mm 2 mps 766 mmHg 94%
    01:00 +14°C° 0 mm 2 mps 766 mmHg 94%
    02:00 +14°C° 0 mm 2 mps 766 mmHg 95%
    03:00 +14°C° 0 mm 2 mps 766 mmHg 95%
    04:00 +13°C° 0 mm 3 mps 766 mmHg 95%
    05:00 +13°C° 0.1 mm 3 mps 766 mmHg 95%
    06:00 +13°C° 0.1 mm 3 mps 766 mmHg 95%
    07:00 +14°C° 0.1 mm 3 mps 766 mmHg 96%
    08:00 +14°C° 0 mm 3 mps 766 mmHg 93%
    09:00 +16°C° 0 mm 3 mps 766 mmHg 91%
    10:00 +17°C° 0 mm 4 mps 766 mmHg 89%
    11:00 +17°C° 0 mm 4 mps 766 mmHg 85%
    12:00 +18°C° 0 mm 4 mps 766 mmHg 82%
    13:00 +19°C° 0 mm 4 mps 766 mmHg 78%
    14:00 +19°C° 0 mm 4 mps 766 mmHg 76%
    15:00 +19°C° 0 mm 5 mps 766 mmHg 74%
    16:00 +19°C° 0 mm 5 mps 766 mmHg 72%
    17:00 +17°C° 0 mm 5 mps 766 mmHg 77%
    18:00 +16°C° 0 mm 5 mps 766 mmHg 83%
    19:00 +14°C° 0 mm 5 mps 766 mmHg 88%
    20:00 +14°C° 0 mm 4 mps 766 mmHg 90%
    21:00 +13°C° 0 mm 4 mps 767 mmHg 92%
    22:00 +13°C° 0 mm 4 mps 767 mmHg 95%
    23:00 +13°C° 0 mm 4 mps 767 mmHg 95%

    25 September, Monday

    Time Temperature Precipitation Wind Pressure Humidity
    00:00 +12°C° 0 mm 4 mps 767 mmHg 95%
    01:00 +12°C° 0 mm 4 mps 767 mmHg 96%
    02:00 +12°C° 0 mm 4 mps 767 mmHg 96%
    03:00 +12°C° 0 mm 4 mps 766 mmHg 96%
    04:00 +12°C° 0 mm 4 mps 766 mmHg 96%
    05:00 +12°C° 0 mm 4 mps 766 mmHg 96%
    06:00 +13°C° 0 mm 4 mps 766 mmHg 96%
    07:00 +13°C° 0 mm 4 mps 766 mmHg 96%
    08:00 +14°C° 0.4 mm 4 mps 766 mmHg 93%
    09:00 +15°C° 0.4 mm 5 mps 766 mmHg 90%
    10:00 +16°C° 0.4 mm 5 mps 766 mmHg 87%
    11:00 +16°C° 0.7 mm 5 mps 766 mmHg 85%
    12:00 +17°C° 0.7 mm 5 mps 766 mmHg 82%
    13:00 +17°C° 0.7 mm 6 mps 766 mmHg 80%
    14:00 +16°C° 0.3 mm 6 mps 766 mmHg 81%
    15:00 +16°C° 0.3 mm 6 mps 766 mmHg 82%
    16:00 +15°C° 0.3 mm 6 mps 765 mmHg 83%
    17:00 +14°C° 0 mm 6 mps 766 mmHg 85%
    18:00 +14°C° 0 mm 5 mps 766 mmHg 86%
    19:00 +13°C° 0 mm 5 mps 766 mmHg 88%
    20:00 +13°C° 0.1 mm 5 mps 766 mmHg 90%
    21:00 +13°C° 0.1 mm 5 mps 766 mmHg 91%
    22:00 +13°C° 0.1 mm 4 mps 766 mmHg 93%
    23:00 +13°C° 0.2 mm 4 mps 766 mmHg 94%

    26 September, Tuesday

    Time Temperature Precipitation Wind Pressure Humidity
    00:00 +12°C° 0.2 mm 4 mps 766 mmHg 95%
    01:00 +12°C° 0.2 mm 4 mps 766 mmHg 96%
    02:00 +12°C° 0 mm 4 mps 766 mmHg 96%
    03:00 +12°C° 0 mm 4 mps 766 mmHg 96%
    04:00 +12°C° 0 mm 4 mps 766 mmHg 97%
    05:00 +12°C° 0 mm 4 mps 766 mmHg 96%
    06:00 +12°C° 0 mm 4 mps 766 mmHg 96%
    07:00 +12°C° 0 mm 4 mps 766 mmHg 96%
    08:00 +13°C° 0 mm 5 mps 767 mmHg 94%
    09:00 +14°C° 0 mm 5 mps 767 mmHg 91%
    10:00 +14°C° 0 mm 5 mps 767 mmHg 89%
    11:00 +15°C° 0.1 mm 5 mps 767 mmHg 87%
    12:00 +15°C° 0.1 mm 5 mps 767 mmHg 86%
    13:00 +16°C° 0.1 mm 5 mps 767 mmHg 84%
    14:00 +16°C° 0.2 mm 5 mps 767 mmHg 84%
    15:00 +17°C° 0.2 mm 4 mps 767 mmHg 85%
    16:00 +17°C° 0.2 mm 4 mps 767 mmHg 85%
    17:00 +15°C° 0.1 mm 4 mps 767 mmHg 88%
    18:00 +14°C° 0.1 mm 4 mps 767 mmHg 92%
    19:00 +14°C° 0.1 mm 4 mps 767 mmHg 95%
    20:00 +13°C° 0.1 mm 3 mps 767 mmHg 95%
    21:00 +13°C° 0.1 mm 3 mps 767 mmHg 95%
    22:00 +13°C° 0.1 mm 3 mps 767 mmHg 95%
    23:00 +13°C° 0.3 mm 3 mps 767 mmHg 95%

    27 September, Wednesday

    Time Temperature Precipitation Wind Pressure Humidity
    00:00 +13°C° 0.3 mm 3 mps 767 mmHg 95%
    01:00 +14°C° 0.3 mm 2 mps 767 mmHg 95%
    02:00 +14°C° 0.2 mm 2 mps 767 mmHg 96%
    03:00 +14°C° 0.2 mm 2 mps 767 mmHg 96%
    04:00 +14°C° 0.2 mm 2 mps 767 mmHg 96%
    05:00 +13°C° 0 mm 3 mps 767 mmHg 96%
    06:00 +13°C° 0 mm 3 mps 767 mmHg 96%
    07:00 +13°C° 0 mm 3 mps 767 mmHg 96%
    08:00 +14°C° 0.1 mm 3 mps 768 mmHg 93%
    09:00 +16°C° 0.1 mm 3 mps 768 mmHg 89%
    10:00 +17°C° 0.1 mm 3 mps 768 mmHg 86%
    11:00 +18°C° 0.2 mm 3 mps 768 mmHg 82%
    12:00 +19°C° 0.2 mm 3 mps 768 mmHg 78%
    13:00 +20°C° 0.2 mm 3 mps 768 mmHg 75%
    14:00 +20°C° 1.2 mm 3 mps 768 mmHg 76%
    15:00 +20°C° 1.2 mm 3 mps 768 mmHg 78%
    16:00 +20°C° 1.2 mm 3 mps 768 mmHg 79%
    17:00 +19°C° 0.8 mm 3 mps 768 mmHg 83%
    18:00 +18°C° 0.8 mm 3 mps 768 mmHg 86%
    19:00 +15°C° 0.8 mm 4 mps 768 mmHg 90%
    20:00 +15°C° 0.1 mm 4 mps 768 mmHg 90%
    21:00 +15°C° 0.1 mm 4 mps 768 mmHg 90%
    22:00 +14°C° 0.1 mm 4 mps 769 mmHg 90%
    23:00 +14°C° 0.2 mm 4 mps 769 mmHg 89%
    Show more